Location: ????? ???????
(25.7275°N, 32.5929°E)
Time: 10:59:17
(UTC+00:00)

Cosmos 1503 Rocket - Pass Details

Date: 02 March 2021
Orbit: 753 x 790 km, 74.0° (Epoch: 15 April)

Event Time Altitude Azimuth Distance (km) Brightness Sun altitude
Rises 17:30:20 0° 348° (NNW) 3,208 7.4 -22.9°
Reaches altitude 10° 17:32:43 10° 351° (N) 2,278 6.6 -23.5°
Enters shadow 17:37:38 67° 56° (NE) 812 3.8 -24.6°
